Location: Krakow
(50.0830°N, 19.9170°E)
Time: 10:10:55
(UTC+01:00)

Transit 2A - Pass Details

Date: 12 February 2023
Orbit: 591 x 964 km, 66.7° (Epoch: 21 March)

Event Time Altitude Azimuth Distance (km) Brightness Sun altitude
Rises 00:55:15 0° 313° (NW) 3,553 - -51.7°
Reaches altitude 10° 00:58:27 10° 297° (WNW) 2,651 - -51.5°
Maximum altitude 01:02:37 19° 255° (WSW) 2,103 - -51.2°
Drops below altitude 10° 01:06:52 10° 212° (SSW) 2,695 - -50.9°
Sets 01:10:11 0° 196° (SSW) 3,634 - -50.6°
